Saginaw, MI

10:17 AM EDT on July 23, 2017 (GMT -0400)
MBS International

Weather History for KMBS - April, 2014

Change the Weather History Date:

Saturday, April 19, 2014

  Actual Average Record
Temperature  
Mean Temperature 42 °F 48 °F  
Max Temperature 53 °F 58 °F 82 °F (2005)
Min Temperature 30 °F 37 °F 25 °F (1997)
Degree Days  
Heating Degree Days 23    
Month to date heating degree days 393  
Since 1 July heating degree days 7208  
Cooling Degree Days 0    
Month to date cooling degree days 0  
Year to date cooling degree days 0  
Moisture  
Dew Point 32 °F    
Average Humidity 69    
Maximum Humidity 85    
Minimum Humidity 53    
Precipitation  
Precipitation 0.00 in 0.10 in 0.48 in (2011)
Month to date precipitation 2.60 1.80  
Year to date precipitation 7.41 7.18  
Snow  
Snow 0.00 in - - ()
Month to date snowfall 1.4  
Since 1 July snowfall 60.3  
Snow Depth 0.00 in    
Sea Level Pressure  
Sea Level Pressure 30.44 in    
Wind  
Wind Speed 9 mph (NE)    
Max Wind Speed 17 mph    
Max Gust Speed 20 mph    
Visibility 10 miles    
Events      
T = Trace of Precipitation, MM = Missing Value Source: NWS Daily Summary

Daily Weather History Graph

Daily Weather History Graph

Search for Another Location

Airport or City:

Trip Planner

Search our weather history database for the weather conditions in past years. The results will help you decide how hot, cold, wet, or windy it might be!

Date:

Astronomy

Apr. 19, 2014 Rise Set
Actual Time 6:47 AM EDT 8:24 PM EDT
Civil Twilight 6:17 AM EDT 8:54 PM EDT
Nautical Twilight 5:40 AM EDT 9:31 PM EDT
Astronomical Twilight 5:01 AM EDT 10:10 PM EDT
Moon 12:11 AM EDT (4/19) 10:00 AM EDT (4/19)
Length of Visible Light 14h 37m
Length of Day
13h 37m
Waning Gibbous, 79% of the Moon is Illuminated
Apr 19
Waning Gibbous
Apr 22
Last Quarter
Apr 29
New
May 6
First Quarter
May 14
Full

Hourly Weather History & Observations

Time (EDT) Temp. Windchill Dew Point Humidity Pressure Visibility Wind Dir Wind Speed Gust Speed Precip Events Conditions
12:53 AM 35.1 °F 29.3 °F 30.0 °F 82% 30.43 in 10.0 mi NNE 6.9 mph - N/A   Clear
1:53 AM 33.1 °F 28.7 °F 27.0 °F 78% 30.44 in 10.0 mi NNE 4.6 mph - N/A   Clear
2:53 AM 33.1 °F - 27.0 °F 78% 30.43 in 10.0 mi Calm Calm - N/A   Clear
3:53 AM 33.1 °F 30.0 °F 26.1 °F 75% 30.44 in 10.0 mi NNW 3.5 mph - N/A   Clear
4:53 AM 30.0 °F 24.1 °F 24.1 °F 79% 30.46 in 10.0 mi North 5.8 mph - N/A   Clear
5:53 AM 30.0 °F 24.1 °F 25.0 °F 82% 30.47 in 10.0 mi NNW 5.8 mph - N/A   Clear
6:53 AM 30.9 °F 24.3 °F 25.0 °F 79% 30.49 in 10.0 mi NNE 6.9 mph - N/A   Clear
7:53 AM 33.1 °F 26.9 °F 28.0 °F 82% 30.50 in 10.0 mi NNE 6.9 mph - N/A   Clear
8:53 AM 37.9 °F 31.5 °F 32.0 °F 79% 30.51 in 10.0 mi NE 9.2 mph - N/A   Partly Cloudy
9:22 AM 39.0 °F 31.4 °F 33.1 °F 79% 30.49 in 10.0 mi ENE 12.7 mph - N/A   Mostly Cloudy
9:53 AM 41.0 °F 34.7 °F 33.1 °F 73% 30.52 in 10.0 mi ENE 10.4 mph - N/A   Mostly Cloudy
10:06 AM 42.1 °F 36.6 °F 33.1 °F 70% 30.50 in 10.0 mi ENE 9.2 mph - N/A   Mostly Cloudy
10:16 AM 43.0 °F 36.8 °F 34.0 °F 71% 30.50 in 10.0 mi NE 11.5 mph - N/A   Scattered Clouds
10:53 AM 44.1 °F 40.1 °F 33.1 °F 65% 30.51 in 10.0 mi ENE 6.9 mph - N/A   Partly Cloudy
11:53 AM 46.9 °F - 30.9 °F 54% 30.50 in 10.0 mi East 11.5 mph 17.3 mph N/A   Clear
12:53 PM 48.9 °F - 34.0 °F 56% 30.48 in 10.0 mi East 13.8 mph - N/A   Partly Cloudy
1:53 PM 50.0 °F - 35.1 °F 57% 30.47 in 10.0 mi NE 12.7 mph 18.4 mph N/A   Partly Cloudy
2:53 PM 51.1 °F - 36.0 °F 56% 30.44 in 10.0 mi ENE 13.8 mph 19.6 mph N/A   Clear
3:53 PM 52.0 °F - 36.0 °F 54% 30.42 in 10.0 mi NE 13.8 mph - N/A   Clear
4:53 PM 52.0 °F - 36.0 °F 54% 30.40 in 10.0 mi NNE 12.7 mph - N/A   Clear
5:53 PM 50.0 °F - 35.1 °F 57% 30.39 in 10.0 mi NNE 16.1 mph - N/A   Clear
6:53 PM 46.9 °F - 35.1 °F 63% 30.38 in 10.0 mi NE 13.8 mph - N/A   Clear
7:53 PM 44.1 °F 37.4 °F 35.1 °F 71% 30.36 in 10.0 mi NE 13.8 mph - N/A   Clear
8:53 PM 42.1 °F 36.6 °F 35.1 °F 76% 30.36 in 10.0 mi NNE 9.2 mph - N/A   Clear
9:53 PM 39.9 °F 34.5 °F 35.1 °F 83% 30.36 in 10.0 mi NNE 8.1 mph - N/A   Clear
10:53 PM 39.0 °F 33.4 °F 35.1 °F 86% 30.37 in 10.0 mi NNE 8.1 mph - N/A   Clear
11:53 PM 39.9 °F 35.8 °F 35.1 °F 83% 30.36 in 10.0 mi East 5.8 mph - N/A   Clear